[ ตารางข้อมูล ] [ Min-Max ] [ วันนี้4 ] [ วันนี้2 ] [ เทียบ3วัน A ] [ เทียบ4วัน B ]   

วันนี้2   [ ◀ ช่วงเก่ากว่า ] [ ช่วงที่ 215 ] [ ช่วงใหม่กว่า ▶ ] [ ล่าสุด ]    [ 3 ชั่วโมง ] [ 6 ชั่วโมง ] [ 12 ชั่วโมง ] [ 24 ชั่วโมง ]   วันนี้2

อุณภูมิตู้ Knockdown4529  ราย 6 ชั่วโมง  ที่วัดได้ ในช่วงวันเวลา 12/03/2026 (16:27) ถึง 12/03/2026 (22:27) 
ความชื้นในตู้ Knockdown4529  ราย 6 ชั่วโมง  ที่วัดได้ ในช่วงวันเวลา 12/03/2026 (16:27) ถึง 12/03/2026 (22:27) 

 
DS18B20SHTC3 
IDDate d/m/Y & Timedata1
สูง
data2
ต่ำ
data3
นอก
temp
pcb
hum
pcb
Time
 1902  12/03/2026 22:23:14  28.3  28.4  27.7  28.1  70.4  22:23 
 1901  12/03/2026 22:18:32  28.4  28.4  27.7  28.2  70.4  22:18 
 1900  12/03/2026 22:13:50  28.4  28.4  27.7  28.2  70.3  22:13 
 1899  12/03/2026 22:09:09  28.4  28.4  27.7  28.3  70.3  22:09 
 1898  12/03/2026 22:04:27  28.4  28.4  27.8  28.2  70.3  22:04 
 1897  12/03/2026 21:59:46  28.4  28.4  27.8  28.2  70.3  21:59 
 1896  12/03/2026 21:55:05  28.4  28.4  27.8  28.2  70.3  21:55 
 1895  12/03/2026 21:50:22  28.4  28.4  27.8  28.4  70.4  21:50 
 1894  12/03/2026 21:45:40  28.4  28.5  27.8  28.4  70.2  21:45 
 1893  12/03/2026 21:40:58  28.4  28.5  27.8  28.5  70.3  21:40 
 1892  12/03/2026 21:36:16  28.5  28.5  27.9  28.4  70.3  21:36 
 1891  12/03/2026 21:31:34  28.5  28.6  27.8  28.4  70.2  21:31 
 1890  12/03/2026 21:26:53  28.5  28.6  27.8  28.4  70.2  21:26 
 1889  12/03/2026 21:22:12  28.5  28.6  27.8  28.4  70.3  21:22 
 1888  12/03/2026 21:17:30  28.5  28.6  27.8  28.5  70.2  21:17 
 1887  12/03/2026 21:12:48  28.6  28.6  27.8  28.4  70.1  21:12 
 1886  12/03/2026 21:08:06  28.6  28.6  27.9  28.6  70.1  21:08 
 1885  12/03/2026 21:03:25  28.6  28.6  27.9  28.6  70.1  21:03 
 1884  12/03/2026 20:58:44  28.6  28.7  27.9  28.6  70.1  20:58 
 1883  12/03/2026 20:54:02  28.6  28.7  27.9  28.7  70.0  20:54 
 1882  12/03/2026 20:49:20  28.7  28.7  27.9  28.6  69.9  20:49 
 1881  12/03/2026 20:44:39  28.7  28.8  27.9  28.6  70.0  20:44 
 1880  12/03/2026 20:39:56  28.7  28.8  27.9  28.6  70.0  20:39 
 1879  12/03/2026 20:35:14  28.7  28.8  27.9  28.6  70.0  20:35 

Data every 5 minute.


ใช้เวลาประมวลผล 0.00286 วินาที